Home   Weather   Pasadena   Past weeks
Flag for USA

Past Weather in Pasadena, Texas, USA — Yesterday and Last 2 Weeks

Now
79 °F

Passing clouds.


Feels Like: 82 °F
Forecast: 91 / 81 °F
Wind: No wind

Location: Houston / Ellington

Current Time: Jul 20, 2019 at 6:55:52 am

Latest Report: Jul 20, 2019 at 5:50 am


Visibility: 10 mi

Pressure: 29.96 "Hg

Humidity: 89%

Dew Point: 75 °F

Location of PasadenaLocation

Past Weather in Pasadena — Graph

°F

Pasadena Temperature Yesterday

Maximum temperature yesterday: 93 °F (at 1:50 pm)
Minimum temperature yesterday: 79 °F (at 12:50 am)
Average temperature yesterday: 85 °F

High & Low Weather Summary for the Past Weeks

 TemperatureHumidityPressure
High97 °F (Jul 12, 4:50 pm)94% (Jul 6, 5:50 am)30.11 "Hg (Jul 6, 5:50 am)
Low75 °F (Jul 6, 5:50 am)32% (Jul 12, 4:50 pm)29.69 "Hg (Jul 13, 3:50 am)
Average85 °F70%29.93 "Hg
* Reported Jul 5 4:50 am — Jul 20 4:50 am, Pasadena. Weather by CustomWeather, © 2019

Note: Actual official high and low records may vary slightly from our data, if they occured in-between our weather recording intervals... More about our weather records

Advertising

Pasadena Weather History for the Previous 24 Hours

Scroll right to see more
 ConditionsComfort  
Time TempWeatherWind HumidityBarometerVisibility
4:50 am
Sat, Jul 20
79 °FPassing clouds.No wind89%29.96 "Hg10 mi
3:50 am79 °FPassing clouds.3 mph89%29.94 "Hg10 mi
2:50 am79 °FPassing clouds.5 mph89%29.95 "Hg10 mi
1:50 am79 °FPassing clouds.5 mph89%29.96 "Hg10 mi
12:50 am81 °FPassing clouds.5 mph84%29.96 "Hg10 mi
11:50 pm
Fri, Jul 19
81 °FPassing clouds.6 mph84%29.97 "Hg10 mi
10:50 pm82 °FPassing clouds.5 mph79%29.97 "Hg10 mi
9:50 pm84 °FPassing clouds.12 mph74%29.97 "Hg10 mi
8:50 pm84 °FPassing clouds.12 mph70%29.96 "Hg10 mi
7:50 pm88 °FScattered clouds.13 mph59%29.96 "Hg10 mi
5:50 pm91 °FScattered clouds.15 mph56%29.96 "Hg10 mi
3:50 pm93 °FScattered clouds.15 mph53%29.99 "Hg10 mi
2:50 pm93 °FScattered clouds.14 mph53%30.01 "Hg10 mi
1:50 pm93 °FScattered clouds.14 mph53%30.01 "Hg10 mi
12:50 pm91 °FBroken clouds.8 mph59%30.02 "Hg10 mi
11:50 am91 °FBroken clouds.8 mph59%30.03 "Hg10 mi
10:50 am91 °FBroken clouds.12 mph59%30.02 "Hg10 mi
9:50 am84 °FScattered clouds.7 mph74%30.01 "Hg10 mi
7:50 am79 °FPassing clouds.5 mph89%29.99 "Hg10 mi
6:50 am79 °FPassing clouds.No wind89%29.97 "Hg10 mi
Weather by CustomWeather, © 2019

See weather overview